1531044001.2,2929,20.94,74160.3,20.95,6.03,2.69,0,*7B
1531044002.42,2930,20.94,74160.8,20.95,6.83,3.53,0,*73
1531044003.62,2931,20.94,74158.5,20.97,6.35,2.91,0,*72
1531044004.88,2932,20.94,74160.0,20.95,6.13,2.51,0,*7B
1531044006.09,2933,20.94,74160.8,20.95,6.21,2.61,0,*78
1531044007.29,2934,20.94,74158.3,20.95,6.93,3.29,0,*7B
1531044008.51,2935,20.94,74158.0,20.95,7.23,3.63,0,*7E
1531044009.71,2936,20.94,74156.5,20.97,6.69,3.29,0,*7E
1531044010.96,2937,20.94,74156.3,20.95,6.65,3.45,0,*7B
1531044012.16,2938,20.94,74158.0,20.93,5.95,3.15,0,*7B
1531044013.36,2939,20.94,74156.3,20.93,6.65,4.07,0,*72
1531044014.57,2940,20.94,74160.0,20.91,6.47,4.07,0,*7E
1531044015.77,2941,20.94,74158.0,20.91,6.93,4.67,0,*70
1531044016.97,2942,20.94,74156.5,20.91,6.69,3.93,0,*7A
1531044018.18,2943,20.94,74156.5,20.89,6.69,4.49,0,*72
1531044019.43,2944,20.94,74158.5,20.89,6.87,4.79,0,*76
1531044020.67,2945,20.94,74160.3,20.89,6.39,3.71,0,*7D
1531044021.9,2946,20.94,74154.8,20.85,6.25,3.53,0,*7F
1531044023.13,2947,20.94,74162.3,20.85,6.21,3.45,0,*7D
1531044024.32,2948,20.94,74158.5,20.83,6.17,3.85,0,*7D
1531044025.55,2949,20.94,74160.5,20.81,5.95,3.79,0,*74
1531044026.78,2950,20.94,74160.5,20.81,7.23,5.19,0,*73
1531044028.02,2951,20.94,74156.3,20.81,7.77,5.51,0,*7F
1531044029.21,2952,20.94,74162.0,20.81,7.97,5.37,0,*72
1531044030.44,2953,20.94,74158.5,20.81,7.77,5.29,0,*72
1531044031.65,2954,20.94,74160.0,20.81,7.47,4.81,0,*75
1531044032.89,2955,20.94,74160.3,20.81,7.29,5.01,0,*75
1531044034.11,2956,20.94,74158.8,20.77,7.47,5.41,0,*73
1531044035.36,2957,20.94,74160.3,20.77,7.47,5.51,0,*73
1531044036.59,2958,20.94,74156.8,20.77,7.47,5.67,0,*79
1531044037.8,2959,20.94,74158.5,20.75,7.29,5.55,0,*73
1531044038.99,2960,20.94,74158.5,20.73,7.45,5.71,0,*73
1531044040.19,2961,20.94,74156.0,20.73,8.01,6.33,0,*78
1531044041.43,2962,20.94,74158.8,20.73,8.33,6.69,0,*75
1531044042.64,2963,20.94,74160.0,20.73,8.05,6.39,0,*74
1531044043.86,2964,20.94,74156.0,20.73,8.27,6.57,0,*7B
1531044045.09,2965,20.94,74156.0,20.71,8.41,6.47,0,*79
1531044046.32,2966,20.94,74158.0,20.71,8.55,6.65,0,*7F
1531044047.55,2967,20.94,74156.3,20.69,8.19,6.47,0,*7F
1531044048.78,2968,20.94,74158.8,20.69,8.41,6.79,0,*70
1531044050.01,2969,20.94,74156.3,20.67,8.41,6.91,0,*79
1531044051.2,2970,20.94,74156.8,20.63,8.61,7.15,0,*7A
1531044052.37,2971,20.94,74158.8,20.63,8.45,7.01,0,*78
1531044053.56,2972,20.94,74158.3,20.63,8.69,7.47,0,*77
1531044054.79,2973,20.94,74158.3,20.59,8.19,7.11,0,*7B
1531044056.03,2974,20.94,74156.0,20.59,7.11,6.13,0,*78
1531044057.28,2975,20.94,74156.0,20.55,6.91,5.89,0,*7C
1531044058.51,2976,20.94,74156.0,20.51,6.51,5.71,0,*70
1531044059.73,2977,20.94,74156.0,20.47,6.25,5.63,0,*76
1531044060.93,2978,20.94,74158.5,20.47,6.07,5.37,0,*78
1531044062.15,2979,20.94,74158.3,20.43,7.87,5.33,0,*70
1531044063.38,2980,20.94,74158.8,20.37,10.75,5.93,0,*44
1531044064.59,2981,20.94,74158.3,20.37,8.41,5.59,0,*7D
1531044065.8,2982,20.94,74156.0,20.33,6.51,5.29,0,*72
1531044067.01,2983,20.94,74158.8,20.29,7.09,5.55,0,*7F
1531044068.19,2984,20.94,74156.0,20.29,7.29,6.03,0,*7A
1531044069.41,2985,20.94,74158.0,20.25,7.19,4.81,0,*7C
1531044070.64,2986,20.94,74156.8,20.17,7.95,5.33,0,*72
1531044071.83,2987,20.94,74158.3,20.15,8.27,5.63,0,*72
1531044073.05,2988,20.94,74158.3,20.13,8.65,5.85,0,*75
1531044074.25,2989,20.94,74156.5,20.11,8.29,5.67,0,*72
1531044075.47,2990,20.94,74160.3,20.09,8.69,6.17,0,*73
1531044076.67,2991,20.94,74158.0,20.07,9.25,6.73,0,*77
1531044077.87,2992,20.94,74160.0,20.07,9.49,6.83,0,*71
1531044079.07,2993,20.94,74156.8,20.05,12.39,6.75,0,*46
1531044080.25,2994,20.94,74156.3,20.03,13.25,6.83,0,*42
1531044081.43,2995,20.94,74154.0,19.99,9.71,6.83,0,*70
1531044082.68,2996,20.94,74156.8,20.01,8.97,6.51,0,*7E
1531044083.88,2997,20.94,74156.5,19.95,8.97,6.29,0,*77
1531044085.08,2998,20.94,74154.3,19.93,8.15,5.49,0,*71
1531044086.28,2999,20.94,74156.0,19.91,9.47,5.93,0,*73
1531044087.5,3000,20.94,74156.8,19.89,8.75,6.29,0,*70
1531044088.7,3001,20.94,74158.5,19.85,6.93,5.63,0,*76
1531044089.96,3002,20.94,74158.3,19.81,7.73,5.55,0,*7B
1531044091.13,3003,20.94,74156.8,19.79,8.65,5.99,0,*75
1531044092.35,3004,20.94,74156.3,19.77,9.07,6.57,0,*78
1531044093.57,3005,20.94,74158.0,19.77,8.89,6.25,0,*7B
1531044094.77,3006,20.94,74156.3,19.71,8.33,5.59,0,*77
1531044095.96,3007,20.94,74156.3,19.67,8.79,5.63,0,*76
1531044097.15,3008,20.94,74160.3,19.67,8.05,5.27,0,*72
1531044098.37,3009,20.94,74162.3,19.63,8.47,5.49,0,*79
1531044099.6,3010,20.94,74154.8,19.63,8.37,5.71,0,*7D
1531044100.84,3011,20.94,74156.5,19.59,8.51,5.93,0,*79
1531044102.04,3012,20.94,74158.0,19.57,8.59,5.63,0,*73
1531044103.23,3013,20.94,74156.5,19.57,8.69,5.77,0,*74
1531044104.48,3014,20.94,74156.5,19.55,8.75,5.81,0,*75
1531044105.68,3015,20.94,74158.8,19.53,8.79,5.89,0,*76
1531044106.88,3016,20.94,74158.3,19.49,8.71,5.45,0,*76
1531044108.09,3017,20.94,74156.0,19.49,8.97,5.49,0,*73
1531044109.31,3018,20.94,74156.3,19.47,8.93,5.41,0,*7E
1531044110.51,3019,20.94,74156.0,19.47,8.83,5.33,0,*7B
1531044111.72,3020,20.94,74154.5,19.45,8.15,4.79,0,*73
1531044112.95,3021,20.94,74156.8,19.41,8.41,5.27,0,*7D
1531044114.17,3022,20.94,74158.3,19.41,8.33,5.11,0,*7E
1531044115.37,3023,20.94,74154.3,19.37,8.41,4.85,0,*77
1531044116.57,3024,20.94,74154.0,19.37,8.65,4.31,0,*79
1531044117.78,3025,20.94,74156.5,19.33,8.59,4.23,0,*70
1531044119.0,3026,20.94,74158.3,19.31,7.87,3.41,0,*7E
1531044120.22,3027,20.94,74160.0,19.27,7.47,2.77,0,*70
1531044121.42,3028,20.94,74158.0,19.21,7.55,2.91,0,*72
1531044122.67,3029,20.94,74158.8,19.21,7.65,3.15,0,*7D
1531044123.9,3030,20.94,74156.5,19.15,7.27,3.03,0,*73
1531044125.09,3031,20.94,74156.0,19.15,6.93,2.85,0,*73
1531044126.29,3032,20.94,74160.8,19.11,7.27,2.99,0,*77
1531044127.52,3033,20.94,74158.8,19.09,7.87,3.81,0,*7D
1531044128.72,3034,20.94,74158.3,19.07,7.37,3.11,0,*76
1531044129.97,3035,20.94,74156.8,19.01,7.77,3.67,0,*74
1531044131.18,3036,20.94,74158.5,19.01,8.23,4.15,0,*7B
1531044132.38,3037,20.94,74158.0,18.97,8.37,4.33,0,*75
1531044133.58,3038,20.94,74156.0,18.97,8.01,4.01,0,*7E
1531044134.81,3039,20.94,74156.0,18.95,7.95,4.15,0,*7A
1531044136.06,3040,20.94,74158.5,18.95,7.95,3.79,0,*79
1531044137.29,3041,20.94,74154.5,18.91,7.33,3.33,0,*7E
1531044138.52,3042,20.94,74158.0,18.87,7.23,3.59,0,*77
1531044139.69,3043,20.94,74156.3,18.85,7.97,4.19,0,*78
1531044140.87,3044,20.94,74160.0,18.85,8.45,4.81,0,*7E
1531044142.04,3045,20.94,74158.5,18.81,7.41,4.07,0,*7E
1531044143.27,3046,20.94,74156.8,18.79,7.77,4.19,0,*70
1531044144.47,3047,20.94,74162.3,18.77,7.73,4.11,0,*73
1531044145.67,3048,20.94,74158.5,18.75,7.45,4.07,0,*7C
1531044146.9,3049,20.94,74156.0,18.75,7.65,4.33,0,*78
1531044148.11,3050,20.94,74154.0,18.71,7.55,3.63,0,*75
1531044149.31,3051,20.94,74160.0,18.69,8.29,3.93,0,*76
1531044150.53,3052,20.94,74160.0,18.67,8.93,4.05,0,*72
1531044151.73,3053,20.94,74156.0,18.67,8.97,4.41,0,*77
1531044152.93,3054,20.94,74156.3,18.67,8.71,4.49,0,*70
1531044154.1,3055,20.94,74156.0,18.67,9.03,4.27,0,*7D
1531044155.3,3056,20.94,74158.0,18.65,8.69,4.37,0,*70
1531044156.47,3057,20.94,74156.3,18.63,8.69,4.11,0,*73
1531044157.69,3058,20.94,74160.5,18.57,7.47,2.95,0,*72
1531044158.92,3059,20.94,74160.5,18.59,6.51,2.21,0,*74
1531044160.15,3060,20.94,74156.8,18.57,7.29,2.77,0,*7D
1531044161.38,3061,20.94,74154.3,18.55,8.33,3.75,0,*79
1531044162.59,3062,20.94,74156.8,18.53,8.37,3.55,0,*7A
1531044163.77,3063,20.94,74158.8,18.55,8.79,3.85,0,*7A
1531044164.96,3064,20.94,74158.3,18.55,8.61,3.53,0,*7F
1531044166.16,3065,20.94,74162.3,18.55,8.27,2.47,0,*78
1531044167.36,3066,20.94,74156.8,18.51,8.79,2.89,0,*76
1531044168.57,3067,20.94,74160.5,18.51,8.87,3.11,0,*76
1531044169.81,3068,20.94,74160.3,18.53,8.33,2.47,0,*76
1531044171.03,3069,20.94,74158.3,18.49,8.61,2.73,0,*7C
1531044172.28,3070,20.94,74158.8,18.49,8.71,3.11,0,*70
1531044173.5,3071,20.94,74160.0,18.49,8.65,3.33,0,*74
1531044174.75,3072,20.94,74158.3,18.49,7.15,2.05,0,*7B
1531044175.92,3073,20.94,74156.3,18.47,8.05,2.95,0,*73
1531044177.11,3074,20.94,74158.5,18.47,9.11,3.89,0,*7C
1531044178.31,3075,20.94,74156.0,18.47,8.97,4.07,0,*73
1531044179.53,3076,20.94,74160.8,18.47,7.19,2.55,0,*78
1531044180.72,3077,20.94,74156.0,18.47,7.51,3.23,0,*75
1531044181.93,3078,20.94,74160.5,18.47,6.69,3.67,0,*70
1531044183.16,3079,20.94,74160.5,18.47,4.97,2.51,0,*76
1531044184.38,3080,20.94,74158.0,18.45,5.15,2.81,0,*74
1531044185.6,3081,20.94,74162.3,18.45,6.21,3.19,0,*71
1531044186.77,3082,20.94,74158.3,18.47,5.37,2.61,0,*7A
1531044188.01,3083,20.94,74160.0,18.45,5.51,2.25,0,*79
1531044189.23,3084,20.94,74162.0,18.45,3.41,1.01,0,*7C
1531044190.47,3085,20.94,74160.0,18.45,3.45,0.79,0,*47
1531044191.71,3086,20.94,74160.5,18.45,3.19,0.33,0,*43
1531044192.9,3087,20.94,74158.0,18.47,3.03,0.09,0,*72
1531044194.15,3088,20.94,74156.5,18.45,0.83,-2.47,0,*61
1531044195.4,3089,20.94,74158.3,18.45,0.75,-2.71,0,*6C
1531044196.61,3090,20.94,74160.0,18.41,0.37,-3.19,0,*69
1531044197.85,3091,20.94,74160.0,18.37,1.29,-2.27,0,*5B
1531044199.11,3092,20.94,74156.5,18.37,2.01,-1.35,0,*51
1531044200.36,3093,20.94,74158.5,18.37,2.51,-0.93,0,*68
1531044201.6,3094,20.94,74156.3,18.37,2.55,-0.89,0,*60
1531044202.83,3095,20.94,74158.8,18.41,3.19,-0.11,0,*68
1531044204.02,3096,20.94,74158.8,18.43,3.59,0.17,0,*46
1531044205.22,3097,20.94,74158.3,18.47,3.71,-0.03,0,*51
1531044206.47,3098,20.94,74156.5,18.49,2.25,-1.91,0,*5A
1531044207.73,3099,20.94,74160.0,18.49,2.43,-2.03,0,*53
1531044208.96,3100,20.94,74158.0,18.49,1.79,-2.75,0,*59
1531044210.22,3101,20.94,74158.0,18.49,2.01,-2.55,0,*56
1531044211.45,3102,20.94,74156.3,18.49,2.13,-2.87,0,*59
1531044212.67,3103,20.94,74158.3,18.47,1.63,-3.43,0,*5B
1531044213.91,3104,20.94,74158.3,18.49,2.61,-2.51,0,*51
1531044215.15,3105,20.94,74158.3,18.53,1.51,-3.67,0,*5F
1531044216.36,3106,20.94,74156.8,18.51,1.93,-3.27,0,*54
1531044217.58,3107,20.94,74158.0,18.53,2.25,-2.91,0,*55
1531044218.75,3108,20.94,74158.8,18.55,1.41,-3.87,0,*5B
1531044220.01,3109,20.94,74158.5,18.57,3.19,-1.87,0,*55
1531044221.23,3110,20.94,74156.8,18.65,5.41,0.55,0,*44
1531044222.43,3111,20.94,74160.5,18.73,4.57,-0.23,0,*68
1531044223.61,3112,20.94,74160.8,18.77,3.93,-0.81,0,*68
1531044224.82,3113,20.94,74160.3,18.81,3.37,-1.29,0,*5D
1531044226.03,3114,20.94,74158.3,18.89,3.33,-1.29,0,*56
1531044227.26,3115,20.94,74158.0,18.95,2.91,-1.95,0,*54
1531044228.48,3116,20.94,74156.5,18.99,3.81,-1.01,0,*56
1531044229.7,3117,20.94,74158.8,19.09,5.37,0.59,0,*45
1531044230.89,3118,20.94,74154.8,19.15,5.99,1.13,0,*7C
1531044232.11,3119,20.94,74160.5,19.21,5.59,0.75,0,*47
1531044233.3,3120,20.94,74156.5,19.31,5.95,1.25,0,*78
1531044234.56,3121,20.94,74158.3,19.39,6.73,2.25,0,*79
1531044235.82,3122,21.0,74162.5,19.43,7.65,3.41,0,*72
1531044237.02,3123,20.94,74156.5,19.53,8.45,4.31,0,*7F
1531044238.22,3124,20.94,74158.0,19.61,9.11,5.23,0,*7B
1531044239.48,3125,20.94,74156.3,19.69,9.49,5.89,0,*7F
1531044240.71,3126,20.94,74160.8,19.77,8.79,5.27,0,*75
1531044241.92,3127,20.94,74158.8,19.83,9.77,6.61,0,*71
1531044243.13,3128,20.94,74156.8,19.91,10.09,7.11,0,*4A
1531044244.35,3129,20.94,74160.8,19.95,9.49,6.69,0,*7D
1531044245.55,3130,20.94,74156.5,20.01,8.87,6.25,0,*79
1531044246.78,3131,20.94,74158.0,20.05,9.77,7.33,0,*74
1531044248.0,3132,20.94,74156.3,20.09,10.85,8.51,0,*45
1531044249.23,3133,20.94,74154.3,20.17,10.27,8.01,0,*46
1531044250.44,3134,20.94,74156.5,20.23,10.23,8.09,0,*4A
1531044251.64,3135,20.94,74156.3,20.29,9.53,7.55,0,*78
1531044252.89,3136,20.94,74158.3,20.35,10.37,8.29,0,*48
1531044254.12,3137,20.94,74156.0,20.39,10.37,8.27,0,*4B
1531044255.35,3138,20.94,74158.8,20.47,11.23,9.25,0,*4A
1531044256.58,3139,20.94,74156.0,20.55,10.37,8.27,0,*4F
1531044257.78,3140,20.94,74154.5,20.57,9.99,7.95,0,*79
1531044258.99,3141,20.94,74156.0,20.67,10.75,8.61,0,*45
1531044260.2,3142,20.94,74158.0,20.71,11.07,8.79,0,*4C
1531044261.45,3143,21.0,74158.8,20.77,10.79,8.47,0,*4E
1531044262.66,3144,20.94,74158.3,20.81,11.09,8.69,0,*4A
1531044263.88,3145,20.94,74158.3,20.89,11.27,8.61,0,*47
1531044265.09,3146,20.94,74158.0,20.93,11.45,8.69,0,*43
1531044266.34,3147,20.94,74158.0,20.99,10.65,7.65,0,*48
1531044267.57,3148,21.0,74158.8,21.01,10.31,7.19,0,*4D
1531044268.79,3149,20.94,74154.5,21.07,10.61,7.29,0,*4C
1531044269.96,3150,20.94,74154.5,21.13,10.93,7.45,0,*46
1531044271.16,3151,20.94,74152.8,21.15,10.93,7.37,0,*44
1531044272.38,3152,21.0,74158.3,21.19,9.89,6.07,0,*7A
1531044273.58,3153,21.0,74158.5,21.25,9.71,5.77,0,*77
1531044274.84,3154,20.94,74156.5,21.27,9.81,5.89,0,*7C
1531044276.05,3155,21.0,74158.0,21.27,10.17,6.25,0,*4F
1531044277.29,3156,21.0,74158.5,21.31,10.55,6.47,0,*49
1531044278.48,3157,21.0,74156.3,21.37,9.71,5.67,0,*71
1531044279.67,3158,21.0,74158.8,21.37,9.25,5.07,0,*79
1531044280.85,3159,20.94,74154.5,21.41,8.69,4.33,0,*76
1531044282.09,3160,20.94,74158.5,21.43,8.55,4.23,0,*70
1531044283.33,3161,20.94,74154.8,21.45,9.85,5.55,0,*7B
1531044284.57,3162,20.94,74154.0,21.45,9.39,4.97,0,*70
1531044285.8,3163,20.94,74156.3,21.47,8.75,4.41,0,*71
1531044287.04,3164,20.94,74154.0,21.49,9.39,4.79,0,*7A
1531044288.22,3165,20.94,74154.8,21.53,9.03,4.49,0,*7A
1531044289.44,3166,21.0,74156.3,21.53,8.71,4.01,0,*71
1531044290.63,3167,20.94,74158.3,21.53,7.33,2.61,0,*79
1531044291.86,3168,20.94,74152.5,21.57,7.51,2.85,0,*7C
1531044293.11,3169,20.94,74156.0,21.57,7.65,2.89,0,*76
1531044294.37,3170,20.94,74152.3,21.57,7.27,2.43,0,*7E
1531044295.61,3171,20.94,74154.5,21.57,6.93,2.01,0,*77
1531044296.84,3172,21.0,74156.8,21.57,7.27,2.31,0,*79
1531044298.07,3173,20.94,74156.3,21.57,6.97,1.93,0,*79
1531044299.3,3174,20.94,74152.5,21.57,6.47,1.41,0,*7C
1531044300.55,3175,21.0,74156.3,21.57,6.87,1.67,0,*75
1531044301.79,3176,21.0,74156.0,21.57,6.25,1.17,0,*79
1531044302.99,3177,20.94,74154.3,21.59,6.83,1.67,0,*7D
1531044304.23,3178,21.0,74156.3,21.57,6.03,0.75,0,*46
1531044305.47,3179,21.0,74158.8,21.59,6.35,1.09,0,*76
1531044306.72,3180,21.0,74156.3,21.57,6.69,1.21,0,*7D
1531044307.94,3181,20.94,74154.5,21.57,5.23,-0.41,0,*6B
1531044309.15,3182,20.94,74156.3,21.57,5.19,-0.41,0,*61
1531044310.36,3183,21.0,74156.5,21.57,5.29,-0.41,0,*63
1531044311.54,3184,20.94,74152.5,21.53,4.81,-0.81,0,*6F
1531044312.75,3185,20.94,74154.8,21.51,5.41,-0.33,0,*68
1531044313.98,3186,21.0,74154.8,21.51,4.57,-1.43,0,*5B
1531044315.23,3187,21.0,74156.5,21.47,3.25,-2.63,0,*5E
1531044316.45,3188,21.0,74158.0,21.45,3.11,-3.03,0,*53
1531044317.68,3189,20.94,74154.5,21.43,4.71,-1.25,0,*53
1531044318.95,3190,20.94,74154.0,21.39,4.05,-2.03,0,*52
1531044320.17,3191,21.0,74156.5,21.39,4.15,-1.75,0,*50
1531044321.44,3192,20.94,74152.8,21.35,4.31,-1.43,0,*5C
1531044322.67,3193,20.94,74152.8,21.35,4.53,-1.01,0,*5F
1531044323.9,3194,20.94,74156.3,21.35,4.59,-0.65,0,*61
1531044325.11,3195,20.94,74154.3,21.29,4.97,0.09,0,*78
1531044326.3,3196,21.0,74156.8,21.29,4.85,0.25,0,*46
1531044327.5,3197,21.0,74158.5,21.29,4.57,0.25,0,*48
1531044328.7,3198,21.0,74154.0,21.25,4.31,0.43,0,*4B
1531044329.89,3199,20.94,74154.5,21.21,4.41,0.87,0,*41
1531044331.11,3200,21.0,74156.8,21.19,4.31,1.05,0,*75
1531044332.36,3201,21.0,74156.5,21.19,4.05,1.09,0,*7F
1531044333.55,3202,21.0,74154.0,21.17,4.37,1.67,0,*7B
1531044334.74,3203,21.0,74156.3,21.13,4.57,2.25,0,*7D
1531044335.94,3204,21.0,74156.0,21.13,3.85,1.85,0,*7B
1531044337.17,3205,21.0,74156.0,21.07,2.77,0.55,0,*4F
1531044338.37,3206,21.0,74154.8,21.01,4.11,1.85,0,*70
1531044339.57,3207,21.0,74158.5,20.97,4.37,1.89,0,*77
1531044340.76,3208,21.0,74154.8,20.97,4.45,1.85,0,*71
1531044342.01,3209,21.0,74156.0,20.95,4.71,2.01,0,*7A
1531044343.2,3210,21.0,74156.3,20.91,4.19,1.47,0,*79
1531044344.42,3211,21.0,74154.5,20.89,4.63,1.83,0,*74
1531044345.64,3212,20.94,74154.8,20.85,4.75,1.79,0,*79
1531044346.84,3213,21.0,74160.0,20.79,4.19,1.13,0,*7D
1531044348.06,3214,20.94,74154.8,20.77,4.41,1.51,0,*7F
1531044349.3,3215,20.94,74154.0,20.73,4.67,1.71,0,*7C
1531044350.49,3216,21.0,74156.0,20.71,3.45,0.43,0,*4A
1531044351.69,3217,21.0,74154.3,20.63,3.29,0.51,0,*41
1531044352.94,3218,21.0,74156.3,20.59,4.05,1.25,0,*7C
1531044354.16,3219,20.94,74152.3,20.55,4.57,2.01,0,*73
1531044355.38,3220,21.0,74154.3,20.55,3.85,1.59,0,*7F
1531044356.55,3221,21.0,74156.0,20.49,4.49,2.61,0,*7C
1531044357.78,3222,21.0,74154.5,20.47,4.45,2.81,0,*73
1531044359.03,3223,21.0,74156.0,20.43,4.79,3.49,0,*7C
1531044360.26,3224,21.0,74152.8,20.39,3.97,2.65,0,*7E
1531044361.49,3225,21.0,74158.5,20.35,4.37,3.23,0,*7D
1531044362.73,3226,21.0,74156.0,20.31,4.53,3.41,0,*7C
1531044363.9,3227,21.0,74154.8,20.27,3.63,2.35,0,*7C
1531044365.14,3228,21.0,74154.8,20.25,3.19,2.09,0,*73
1531044366.36,3229,21.0,74156.3,20.21,4.57,3.49,0,*7E
1531044367.56,3230,20.94,74154.3,20.17,4.27,2.95,0,*74
1531044368.77,3231,21.0,74156.0,20.09,5.27,4.19,0,*79
1531044369.94,3232,21.0,74156.3,20.11,5.49,4.53,0,*75
1531044371.14,3233,21.0,74156.8,20.09,4.45,3.55,0,*71
1531044372.37,3234,21.0,74154.8,20.07,3.07,2.13,0,*7A
1531044373.6,3235,20.94,74152.3,20.03,4.63,4.05,0,*7B
1531044374.82,3236,21.0,74156.8,20.01,4.79,4.15,0,*70
1531044376.0,3237,21.0,74154.0,19.99,5.11,4.49,0,*7C
1531044377.17,3238,21.0,74152.5,19.95,5.67,4.85,0,*7E
1531044378.43,3239,21.0,74154.3,19.93,5.89,4.97,0,*7A
1531044379.69,3240,20.94,74154.8,19.93,6.35,5.51,0,*7B
1531044380.87,3241,21.0,74156.8,19.91,6.33,5.49,0,*77
1531044382.05,3242,20.94,74152.3,19.91,6.25,5.45,0,*7F
1531044383.24,3243,21.0,74156.5,19.87,6.25,5.41,0,*7D
1531044384.43,3244,21.0,74154.8,19.87,6.69,5.71,0,*71
1531044385.63,3245,21.0,74152.0,19.87,6.61,5.45,0,*7F
1531044386.85,3246,21.0,74152.5,19.85,5.77,4.49,0,*77
1531044388.08,3247,21.0,74156.3,19.85,6.11,4.71,0,*7E
1531044389.31,3248,21.0,74156.8,19.81,6.73,5.41,0,*73
1531044390.52,3249,21.0,74152.0,19.79,6.03,4.63,0,*73
1531044391.71,3250,21.0,74158.0,19.79,5.49,4.05,0,*76
1531044392.9,3251,21.0,74156.0,19.77,4.49,2.91,0,*73
1531044394.08,3252,21.0,74156.3,19.71,4.81,3.25,0,*7C
1531044395.3,3253,21.0,74154.0,19.67,4.75,3.03,0,*75
1531044396.52,3254,21.0,74158.3,19.63,5.71,3.75,0,*72
1531044397.75,3255,21.0,74152.3,19.63,6.51,4.19,0,*7F
1531044398.96,3256,21.0,74154.0,19.61,6.25,3.75,0,*70
1531044400.18,3257,21.0,74154.5,19.59,6.25,3.67,0,*79
1531044401.39,3258,21.0,74154.5,19.57,6.61,3.93,0,*73
1531044402.63,3259,21.0,74154.5,19.55,6.69,4.01,0,*74
1531044403.86,3260,21.0,74158.0,19.55,6.07,3.15,0,*74
1531044405.04,3261,21.0,74158.3,19.53,6.33,3.63,0,*75
1531044406.26,3262,21.0,74156.5,19.53,6.53,3.67,0,*74
1531044407.48,3263,21.0,74152.3,19.45,6.39,3.53,0,*79
1531044408.71,3264,21.0,74158.5,19.45,6.17,3.41,0,*71
1531044409.9,3265,21.0,74158.0,19.45,6.33,3.55,0,*73
1531044411.15,3266,21.0,74154.8,19.43,6.47,3.67,0,*74
1531044412.37,3267,21.0,74154.0,19.41,6.25,3.45,0,*73
1531044413.57,3268,21.0,74158.8,19.43,5.99,2.91,0,*72
1531044414.78,3269,21.0,74154.8,19.37,5.99,2.73,0,*7C
1531044415.99,3270,21.0,74154.8,19.37,6.25,2.73,0,*70
1531044417.19,3271,21.0,74156.8,19.33,6.61,2.91,0,*79
1531044418.4,3272,21.0,74158.5,19.33,6.75,3.11,0,*76
1531044419.61,3273,21.0,74156.5,19.33,6.43,2.65,0,*70
1531044420.84,3274,21.0,74158.3,19.33,6.13,2.21,0,*72
1531044422.01,3275,21.0,74158.8,19.27,5.71,1.83,0,*7A
1531044423.22,3276,21.0,74156.8,19.25,5.49,1.51,0,*7F
1531044424.44,3277,21.0,74158.5,19.23,4.63,0.71,0,*42
1531044425.63,3278,21.0,74156.3,19.19,5.07,1.17,0,*76
1531044426.85,3279,21.0,74156.8,19.19,5.93,2.01,0,*7E
1531044428.04,3280,21.0,74154.5,19.17,5.41,1.41,0,*7E
1531044429.26,3281,21.0,74154.5,19.17,5.77,1.75,0,*7D
1531044430.5,3282,21.0,74156.8,19.17,5.73,1.59,0,*74
1531044431.67,3283,21.0,74158.8,19.15,4.57,0.05,0,*78
1531044432.85,3284,21.0,74154.5,19.15,5.51,1.05,0,*79
1531044434.04,3285,21.0,74156.8,19.15,5.95,1.47,0,*76
1531044435.26,3286,21.0,74156.8,19.13,5.15,0.37,0,*4D
1531044436.44,3287,21.0,74154.8,19.11,4.15,-0.77,0,*66
1531044437.65,3288,21.0,74156.0,19.11,3.11,-2.23,0,*59
1531044438.86,3289,21.0,74154.3,19.09,3.59,-1.79,0,*51
1531044440.1,3290,21.0,74158.8,19.07,3.67,-1.91,0,*5C
1531044441.32,3291,21.0,74152.0,19.01,2.73,-2.91,0,*5C
1531044442.53,3292,21.0,74158.0,19.01,2.61,-3.31,0,*57
1531044443.73,3293,21.0,74152.5,18.97,2.61,-3.47,0,*59
1531044444.97,3294,21.0,74152.5,18.97,1.55,-4.81,0,*57
1531044446.2,3295,21.0,74152.8,18.93,1.63,-4.85,0,*53
1531044447.41,3296,21.0,74154.3,18.93,1.97,-4.37,0,*52
1531044448.65,3297,21.0,74158.5,18.91,2.39,-4.25,0,*55
1531044449.9,3298,21.0,74154.3,18.91,1.33,-5.55,0,*55
1531044451.14,3299,21.0,74158.0,18.89,1.67,-5.23,0,*5D
1531044452.35,3300,21.0,74156.3,18.87,2.61,-4.21,0,*54
1531044453.54,3301,21.0,74152.0,18.85,2.35,-4.65,0,*56
1531044454.75,3302,21.0,74152.8,18.85,2.31,-4.77,0,*52
1531044455.99,3303,21.0,74156.3,18.85,2.21,-5.15,0,*57
1531044457.23,3304,21.0,74156.0,18.85,1.59,-5.69,0,*57
1531044458.42,3305,21.0,74152.8,18.85,1.83,-5.39,0,*54
1531044459.66,3306,21.0,74154.3,18.87,2.35,-5.07,0,*56
1531044460.9,3307,21.0,74156.3,18.85,2.59,-4.77,0,*59
1531044462.13,3308,21.0,74156.8,18.85,2.59,-4.73,0,*52
1531044463.34,3309,21.0,74154.5,18.87,3.29,-4.09,0,*5A
1531044464.56,3310,21.0,74158.0,18.89,3.07,-4.37,0,*5D
1531044465.79,3311,21.0,74154.3,18.91,3.11,-4.17,0,*50
1531044466.99,3312,21.0,74156.0,18.93,3.49,-3.95,0,*51
1531044468.19,3313,21.0,74156.5,18.93,3.97,-3.23,0,*5E
1531044469.39,3314,21.0,74158.5,18.99,4.27,-2.91,0,*57
1531044470.63,3315,21.0,74158.3,19.03,4.31,-2.75,0,*59
1531044471.87,3316,21.0,74154.3,19.03,4.59,-2.47,0,*55
1531044473.06,3317,21.0,74156.8,19.13,5.49,-1.33,0,*55
1531044474.29,3318,21.0,74156.8,19.15,4.97,-1.83,0,*55
1531044475.51,3319,21.0,74158.0,19.19,3.49,-3.51,0,*51
1531044476.74,3320,21.0,74156.3,19.21,2.91,-4.01,0,*56
1531044477.95,3321,21.0,74158.0,19.25,3.89,-2.95,0,*50
1531044479.13,3322,21.0,74156.3,19.27,3.93,-2.95,0,*5A
1531044480.31,3323,21.0,74152.5,19.33,4.57,-2.27,0,*58
1531044481.54,3324,21.0,74158.0,19.39,5.71,-0.93,0,*6D
1531044482.75,3325,21.0,74154.3,19.43,6.29,-0.45,0,*64
1531044483.99,3326,21.0,74154.5,19.47,6.35,-0.41,0,*6A
1531044485.22,3327,21.0,74156.5,19.55,5.29,-1.47,0,*51
1531044486.42,3328,21.0,74158.0,19.61,4.75,-2.15,0,*55
1531044487.62,3329,21.0,74158.5,19.61,4.63,-2.35,0,*51
1531044488.85,3330,21.0,74156.8,19.63,4.67,-2.19,0,*51
1531044490.05,3331,21.0,74158.0,19.67,4.05,-2.91,0,*50
1531044491.25,3332,21.0,74154.5,19.69,5.45,-1.29,0,*58
1531044492.45,3333,21.0,74154.8,19.79,5.89,-0.69,0,*6D
1531044493.67,3334,21.0,74154.5,19.81,5.49,-0.93,0,*64
1531044494.89,3335,21.0,74154.3,19.85,5.63,-0.93,0,*69
1531044496.07,3336,21.0,74156.0,19.87,4.89,-1.55,0,*56
1531044497.25,3337,21.0,74156.8,19.91,5.11,-1.21,0,*53
1531044498.43,3338,21.0,74156.8,19.95,5.15,-1.29,0,*54
1531044499.66,3339,21.0,74152.8,20.01,4.79,-1.71,0,*54
1531044500.88,3340,21.0,74158.5,20.05,4.27,-2.31,0,*52
1531044502.08,3341,21.0,74158.0,20.05,4.33,-2.35,0,*52
1531044503.32,3342,21.0,74156.0,20.07,4.59,-2.07,0,*5E
1531044504.54,3343,21.0,74152.5,20.07,5.19,-1.43,0,*59
1531044505.79,3344,21.0,74156.0,20.09,4.79,-2.11,0,*53
1531044507.02,3345,21.0,74152.5,20.13,4.67,-2.31,0,*54
1531044508.26,3346,21.0,74152.0,20.13,4.59,-2.43,0,*5F
1531044509.47,3347,21.0,74152.3,20.15,4.63,-2.39,0,*5C
1531044510.68,3348,21.0,74152.8,20.15,4.75,-2.19,0,*56
1531044511.91,3349,21.0,74154.8,20.17,4.75,-2.27,0,*58
1531044513.12,3350,21.0,74152.3,20.17,4.27,-3.07,0,*54
1531044514.32,3351,21.0,74154.5,20.21,4.07,-3.35,0,*53
1531044515.53,3352,21.0,74154.3,20.21,4.27,-3.27,0,*51
1531044516.73,3353,21.0,74154.0,20.17,4.23,-3.31,0,*56
1531044517.94,3354,21.0,74156.0,20.17,4.53,-3.03,0,*57
1531044519.14,3355,21.0,74158.0,20.17,4.53,-3.15,0,*51
1531044520.38,3356,21.0,74152.0,20.17,3.41,-4.37,0,*51
1531044521.61,3357,21.0,74152.3,20.17,2.69,-5.39,0,*54
1531044522.84,3358,21.0,74156.0,20.17,2.59,-5.39,0,*58
1531044524.08,3359,21.0,74154.5,20.15,2.47,-5.73,0,*5A
1531044525.3,3360,21.0,74152.8,20.13,2.35,-5.77,0,*57
1531044526.53,3361,21.0,74154.5,20.11,2.21,-5.93,0,*5B
1531044527.77,3362,21.0,74154.3,20.11,2.51,-5.69,0,*5A
1531044528.99,3363,21.0,74154.0,20.09,2.55,-5.47,0,*5A
1531044530.2,3364,21.0,74154.3,20.07,3.33,-4.57,0,*52
1531044531.41,3365,21.0,74152.8,20.07,3.33,-4.57,0,*53